Location: Ottawa
(45.4170°N, 75.7000°W)
Time: 04:56:43
(UTC-04:00)

ISS - Pass Details

Date: 20 May 2021
Orbit: 417 x 422 km, 51.6° (Epoch: 13 June)

Event Time Altitude Azimuth Distance (km) Brightness Sun altitude
Rises 23:07:56 0° 290° (WNW) 2,366 0.8 -19.6°
Reaches altitude 10° 23:10:13 10° 303° (WNW) 1,503 -0.1 -19.8°
Maximum altitude 23:13:11 27° 4° (N) 835 -1.7 -20.1°
Enters shadow 23:16:05 10° 65° (ENE) 1,484 -1.0 -20.3°
